Notices

What's New in latest Release from April 7th, 2021:

- Updated Glossary, including Speed of Maximum Gust, and Total Hourly Precipitation

- Updated national and regional climate services offices contacts and prices information

- Addition of station inventory lists for 1981-2010, 1971-2000, and 1961-1990 Normals.

Please note that as of June 10, 2021 UTC dates are available for all years 2004-present, and DBA is working on populating the remaining years (2003 to 1953).

If you haven't already, please take our survey and provide feedback about our website: https://eccc.sondage-survey.ca/f/LanguageSelection.aspx?s=442ca660-fcf1-47c0-95a9-59707d6fd709

Hourly Data Report for August 08, 2003

TORONTO CITY
ONTARIO

43°40'00.000" N
79°24'00.000" W
112.50 m
6158355
71508
XTO

Download Data

Hourly Data (August 2003)
Hourly Data Report for August 8, 2003
TIME
LST
Temp Definition
°C
Dew Point Definition
°C
Rel Hum Definition
%
Precip. Amount Definition
mm

Wind Dir Definition
10's deg

Wind Spd Definition
km/h
Visibility Definition
km
Stn Press Definition
kPa
Hmdx Definition


Wind Chill Definition


Weather Definition


00:00 22.5 19.5 83   LegendMM LegendMM LegendMM 99.84 30   LegendNANA
01:00 21.7 19.4 87   LegendMM LegendMM LegendMM 99.84 29   LegendNANA
02:00 21.7 19.6 88   LegendMM LegendMM LegendMM 99.80 29   LegendNANA
03:00 20.7 19.1 91   LegendMM LegendMM LegendMM 99.81 28   LegendNANA
04:00 20.7 19.2 91   LegendMM LegendMM LegendMM 99.82 28   LegendNANA
05:00 20.1 18.8 92   LegendMM LegendMM LegendMM 99.85 27   LegendNANA
06:00 20.5 19.2 92   LegendMM LegendMM LegendMM 99.90 27   LegendNANA
07:00 21.1 19.4 90   LegendMM LegendMM LegendMM 99.92 28   LegendNANA
08:00 22.6 19.7 84   LegendMM LegendMM LegendMM 99.94 30   LegendNANA
09:00 24.4 20.1 77   LegendMM LegendMM LegendMM 99.94 32   LegendNANA
10:00 24.7 19.4 72   LegendMM LegendMM LegendMM 99.97 32   LegendNANA
11:00 24.3 20.3 78   LegendMM LegendMM LegendMM 99.97 32   LegendNANA
12:00 26.2 20.9 73   LegendMM LegendMM LegendMM 99.94 35   LegendNANA
13:00 26.7 21.3 72   LegendMM LegendMM LegendMM 99.92 35   LegendNANA
14:00 26.3 21.1 73   LegendMM LegendMM LegendMM 99.88 35   LegendNANA
15:00 26.4 20.1 68   LegendMM LegendMM LegendMM 99.85 34   LegendNANA
16:00 26.1 20.6 72   LegendMM LegendMM LegendMM 99.85 34   LegendNANA
17:00 25.0 20.3 75   LegendMM LegendMM LegendMM 99.88 33   LegendNANA
18:00 25.2 19.8 72   LegendMM LegendMM LegendMM 99.90 33   LegendNANA
19:00 24.1 20.4 80   LegendMM LegendMM LegendMM 99.93 32   LegendNANA
20:00 24.0 20.4 80   LegendMM LegendMM LegendMM 99.99 32   LegendNANA
21:00 22.4 19.6 84   LegendMM LegendMM LegendMM 100.07 30   LegendNANA
22:00 22.3 18.6 80   LegendMM LegendMM LegendMM 100.09 29   LegendNANA
23:00 21.7 17.3 76   LegendMM LegendMM LegendMM 100.09 27   LegendNANA

Notes on Data Quality.

Legend

  • E = Estimated
  • M = Missing
  • NA = Not Available*
  • [empty] = Indicates an unobserved value
Date modified: